[[{"header":{"parameterUnit":"m.s-1","parameterCategory":1,"la1":30.2991,"la2":30.254,"lo1":-89.0895,"lo2":-89.0444,"dy":0.0017,"dx":0.0017,"nx":28,"ny":28,"refTime":"2024-06-02T03:00:00:Z","depth":0,"parameterNumber":2,"parameterNumberName":"U-component_of_WINDS"},"data":[0,0,0,0,0,0,0,0,0,0,0,0,0,0,0,0,0,0,0,0,0,0,0,0,0,0,0,0,0,0,0,0,0,0,0,0,0,0,0,0,0,0,0,0,0,0,0,0,0,0,0,0,0,0,0,0,0,0,0.3938,0.3937,0,0.3861,0.386,0.3859,0.376,0.3758,0.3757,0.3755,0.3678,0.3677,0.3677,0,0,0,0,0,0,0,0,0,0,0,0,0,0.3998,0.3998,0.3938,0.3937,0.3936,0.3861,0.386,0.3859,0.376,0.3758,0.3756,0.3754,0.3678,0.3677,0.3677,0,0,0,0,0,0,0,0,0,0,0,0,0,0.3952,0.3997,0.3938,0.3877,0.3871,0.3861,0.386,0.3859,0.3761,0.3758,0.3756,0.3753,0.3678,0.3677,0.3677,0.372,0,0,0.3674,0.3674,0,0,0,0,0,0,0,0,0.3955,0.395,0.3887,0.3881,0.3875,0.3817,0.3853,0.3812,0.3761,0.3803,0.3755,0.3752,0.3726,0.3721,0.3712,0.3717,0.3713,0.3674,0.3674,0.3673,0.3673,0,0,0,0,0,0,0,0.3958,0.3953,0.3907,0.3886,0.3879,0.3854,0.3845,0.3845,0.3779,0.3799,0.3791,0.3784,0.3722,0.3713,0.371,0.3712,0.3674,0.3673,0.3673,0.3673,0.3746,0.3748,0,0,0,0,0,0,0.397,0.3956,0.391,0.3905,0.3909,0.3855,0.3845,0.3838,0.3779,0.3767,0.3786,0.3779,0.3716,0.3711,0.3707,0.3753,0.3673,0.3672,0.3672,0.3744,0.3747,0.3749,0,0,0,0,0,0,0.3972,0.3967,0.3913,0.3928,0.392,0.3856,0.385,0.3838,0.3829,0.3769,0.3757,0.3789,0.3714,0.3708,0.3717,0.3749,0.3672,0.3671,0.3741,0.3745,0.3748,0.3846,0,0,0,0,0,0,0.3974,0.3968,0.3984,0.3929,0.3919,0.3925,0.3852,0.3838,0.3828,0.3818,0.3768,0.3758,0.3712,0.3719,0.3716,0.3746,0.3671,0.3738,0.3742,0.3747,0.384,0.3853,0.3864,0,0,0,0,0,0.3977,0.4016,0.3986,0.3981,0.3938,0.3927,0.3921,0.3867,0.3831,0.3846,0.3807,0.3759,0.3746,0.3721,0.3717,0.3747,0.3735,0.3741,0.3746,0.3834,0.385,0.3864,0,0,0,0,0,0,0.4077,0.4007,0.3973,0.3996,0.3968,0.391,0.3928,0.3885,0.3867,0.386,0.3793,0.3782,0.38,0.3774,0.3747,0.3785,0.3733,0.3738,0.3801,0.3816,0.3828,0.3834,0.367,0,0,0,0,0,0.4101,0.4098,0.4038,0.4063,0.4051,0.3992,0.3985,0.3946,0.3914,0.3902,0.3864,0.3835,0.3824,0.3819,0.3805,0.3835,0.3822,0.3854,0.3866,0.3876,0.3881,0.3894,0.3907,0.3767,0.3767,0.3767,0,0,0.4152,0.4114,0.4116,0.4082,0.4056,0.4054,0.3983,0.3984,0.3982,0.3902,0.3908,0.3879,0.3843,0.3863,0.3869,0.3842,0.3917,0.3883,0.3892,0.3891,0.3901,0.3915,0.3926,0.3771,0.377,0.377,0,0,0.4244,0.4215,0.4232,0.4207,0.4168,0.4128,0.4133,0.4081,0.4058,0.4063,0.4003,0.3999,0.3982,0.3958,0.3944,0.4025,0.398,0.4022,0.4085,0.4098,0.4109,0.4119,0.4147,0.4158,0.4028,0.4028,0.4028,0,0.4312,0.4307,0.4247,0.4251,0.4238,0.4165,0.4182,0.416,0.4119,0.4112,0.4081,0.4057,0.4027,0.404,0.4059,0.405,0.4053,0.4028,0.4113,0.4121,0.4129,0.4156,0.4167,0.4033,0.4033,0.4032,0.4031,0,0.4392,0.439,0.4408,0.437,0.4358,0.4369,0.4311,0.4306,0.4267,0.4231,0.4236,0.4198,0.4175,0.4174,0.4137,0.4181,0.4165,0.4125,0.4071,0.4149,0.4173,0.4182,0.4041,0.4039,0.4037,0.4036,0,0,0.4546,0.4473,0.4481,0.4462,0.4413,0.4409,0.4416,0.4393,0.439,0.4364,0.4368,0.4354,0.4316,0.4299,0.4258,0.427,0.4335,0.4227,0.4225,0.4249,0.4381,0.4412,0.4425,0.4305,0.4307,0.4308,0.4384,0,0.4628,0.4636,0.4582,0.4605,0.4601,0.453,0.4536,0.4507,0.4473,0.4464,0.4426,0.4417,0.4367,0.4357,0.4365,0.4326,0.4361,0.4319,0.4308,0.4308,0.4319,0.4437,0.447,0.4544,0.4393,0.4394,0.4395,0,0.4725,0.4704,0.4726,0.4674,0.467,0.4677,0.4651,0.4643,0.4608,0.4582,0.4564,0.4516,0.4518,0.4467,0.447,0.4442,0.4434,0.4414,0.4415,0.4412,0.4357,0.4437,0.4566,0.4577,0.4409,0.4408,0.4407,0,0.4834,0.4811,0.482,0.4806,0.4747,0.4753,0.4728,0.469,0.4679,0.4656,0.4648,0.4626,0.4614,0.4598,0.4545,0.4513,0.4554,0.4498,0.4532,0.4534,0.4544,0.4544,0.4673,0.4539,0.4539,0.4539,0.4539,0,0.4932,0.4948,0.4868,0.4875,0.489,0.4828,0.4845,0.4813,0.478,0.4778,0.4716,0.4716,0.4646,0.4638,0.4596,0.4604,0.4599,0.4578,0.4567,0.4584,0.4587,0.4578,0.4571,0.4542,0.4541,0.4541,0.454,0,0.5056,0.5004,0.501,0.4952,0.4938,0.4952,0.4903,0.4906,0.4868,0.4866,0.4862,0.4802,0.4789,0.4734,0.4709,0.468,0.4702,0.468,0.4714,0.4707,0.4744,0.4741,0.4872,0.4885,0.4743,0.4745,0.4746,0,0.5121,0.5132,0.5076,0.507,0.5048,0.504,0.5029,0.4967,0.4958,0.4917,0.4925,0.4907,0.4889,0.4871,0.4825,0.4805,0.4782,0.4829,0.4778,0.4794,0.4782,0.4782,0.4782,0.484,0.4842,0.4843,0.4845,0,0.5243,0.5216,0.5202,0.5179,0.5166,0.5145,0.512,0.5119,0.505,0.5043,0.5028,0.5015,0.4988,0.497,0.4942,0.4916,0.4869,0.4861,0.4867,0.4885,0.4904,0.4893,0.4744,0.4858,0.4857,0.4856,0.4855,0.4855,0.5339,0.5345,0.5306,0.5292,0.5267,0.5245,0.5244,0.5206,0.5193,0.5166,0.513,0.5121,0.5083,0.504,0.5018,0.5009,0.4983,0.4993,0.4995,0.4998,0.5006,0.4905,0.5004,0.5003,0.5003,0.5002,0.5002,0,0.5457,0.5428,0.5416,0.5382,0.5371,0.5328,0.5298,0.5291,0.5283,0.5253,0.5236,0.522,0.5202,0.5154,0.5132,0.5134,0.5112,0.513,0.5129,0.5124,0.5031,0.5028,0.5148,0.5148,0.5148,0.5148,0.5148,0.5148,0.5516,0.5524,0.5493,0.5487,0.5457,0.5448,0.5434,0.5413,0.5388,0.5372,0.5358,0.5326,0.5288,0.5263,0.5244,0.523,0.5225,0.5251,0.523,0.5145,0.5131,0.5117,0.5113,0.525,0.525,0.5323,0.5324,0.5324]},{"header":{"parameterUnit":"m.s-1","parameterCategory":1,"la1":30.2991,"la2":30.254,"lo1":-89.0895,"lo2":-89.0444,"dy":0.0017,"dx":0.0017,"nx":28,"ny":28,"refTime":"2024-06-02T03:00:00:Z","depth":0,"parameterNumber":3,"parameterNumberName":"V-component_of_WINDS"},"data":[0,0,0,0,0,0,0,0,0,0,0,0,0,0,0,0,0,0,0,0,0,0,0,0,0,0,0,0,0,0,0,0,0,0,0,0,0,0,0,0,0,0,0,0,0,0,0,0,0,0,0,0,0,0,0,0,0,0,3.318,3.3181,0,3.3201,3.3202,3.3202,3.315,3.3148,3.3147,3.3145,3.3168,3.317,3.3172,0,0,0,0,0,0,0,0,0,0,0,0,0,3.3094,3.3096,3.318,3.3181,3.3181,3.3201,3.3202,3.3202,3.315,3.3148,3.3146,3.3144,3.3167,3.3169,3.3172,0,0,0,0,0,0,0,0,0,0,0,0,0,3.3125,3.3096,3.318,3.3158,3.3156,3.3201,3.3202,3.3202,3.3151,3.3148,3.3146,3.3144,3.3166,3.3169,3.3172,3.3241,0,0,3.3182,3.3183,0,0,0,0,0,0,0,0,3.3123,3.3128,3.3161,3.3159,3.3157,3.3171,3.3179,3.3215,3.3151,3.3153,3.3145,3.3142,3.3171,3.3173,3.3183,3.3242,3.3243,3.3182,3.3184,3.3186,3.3186,0,0,0,0,0,0,0,3.3121,3.3127,3.3189,3.3161,3.3159,3.3146,3.3147,3.3186,3.3175,3.3152,3.3149,3.3152,3.3169,3.318,3.3183,3.3243,3.3182,3.3185,3.3187,3.3188,3.3358,3.3361,0,0,0,0,0,0,3.3122,3.3126,3.3188,3.3189,3.3134,3.3149,3.3151,3.3169,3.3175,3.3173,3.3154,3.3149,3.3175,3.3179,3.3183,3.3263,3.3186,3.3189,3.319,3.3356,3.3359,3.3361,0,0,0,0,0,0,3.312,3.3128,3.3187,3.3156,3.3163,3.3153,3.3174,3.317,3.3181,3.3176,3.3174,3.3167,3.3174,3.3179,3.3227,3.3263,3.319,3.3193,3.3352,3.3356,3.336,3.3424,0,0,0,0,0,0,3.3118,3.3128,3.3155,3.3157,3.3165,3.3231,3.3176,3.3173,3.3186,3.3181,3.3187,3.3186,3.3172,3.3222,3.323,3.3266,3.3195,3.3349,3.3354,3.3359,3.3419,3.343,3.3439,0,0,0,0,0,3.3115,3.3172,3.3156,3.3164,3.3198,3.3233,3.3237,3.322,3.319,3.3216,3.3212,3.3186,3.3258,3.3227,3.3236,3.3274,3.3347,3.3353,3.3358,3.3414,3.3427,3.3439,0,0,0,0,0,0,3.3175,3.3172,3.3154,3.3214,3.3224,3.3224,3.3257,3.3235,3.3254,3.3248,3.3226,3.3228,3.3279,3.3281,3.3247,3.3339,3.3297,3.3305,3.3337,3.3349,3.3359,3.3358,3.3198,0,0,0,0,0,3.3195,3.3224,3.322,3.3273,3.3279,3.3267,3.3282,3.3267,3.3277,3.3281,3.328,3.3291,3.3315,3.3332,3.3355,3.3418,3.3418,3.3448,3.3458,3.3467,3.3474,3.3506,3.3519,3.3381,3.3381,3.3381,0,0,3.3237,3.3239,3.3259,3.3285,3.3291,3.332,3.3271,3.3305,3.3327,3.3286,3.3331,3.3331,3.334,3.3396,3.342,3.3399,3.3512,3.3474,3.3481,3.3484,3.3513,3.3527,3.3538,3.3385,3.3384,3.3383,0,0,3.3328,3.3333,3.3377,3.3383,3.3392,3.3384,3.3394,3.3397,3.3395,3.344,3.3409,3.3434,3.3478,3.3485,3.3495,3.3586,3.3562,3.3594,3.3648,3.368,3.3691,3.37,3.3732,3.3744,3.3601,3.3601,3.3602,0,3.3379,3.3423,3.3403,3.3438,3.345,3.3413,3.3456,3.3464,3.348,3.3489,3.3464,3.3517,3.3521,3.3577,3.3599,3.3608,3.3619,3.3594,3.3691,3.37,3.3709,3.3739,3.3751,3.3605,3.3605,3.3604,3.3604,0,3.3485,3.3516,3.355,3.3565,3.3581,3.362,3.3605,3.3623,3.3606,3.36,3.3645,3.3648,3.367,3.3682,3.3667,3.3735,3.3721,3.3694,3.3651,3.3726,3.3754,3.3765,3.3611,3.3609,3.3608,3.3607,0,0,3.3617,3.3618,3.3631,3.3637,3.3643,3.3666,3.3703,3.3723,3.3739,3.3751,3.3781,3.3817,3.3791,3.3802,3.3787,3.3815,3.3886,3.3784,3.3784,3.3802,3.396,3.3981,3.3995,3.3869,3.3871,3.3873,3.3959,0,3.3707,3.377,3.3751,3.3815,3.3842,3.3806,3.3838,3.3844,3.3839,3.3861,3.3855,3.388,3.3845,3.3851,3.3877,3.3872,3.3917,3.3865,3.3897,3.3898,3.3896,3.4009,3.4032,3.4113,3.397,3.3972,3.3973,0,3.3821,3.3835,3.3901,3.3901,3.3911,3.3941,3.3956,3.3978,3.3984,3.3978,3.3989,3.3968,3.4003,3.396,3.4008,3.3973,3.3984,3.3984,3.3986,3.3989,3.3941,3.4015,3.4139,3.4151,3.399,3.3989,3.3988,0,3.3909,3.3946,3.3989,3.3995,3.3996,3.4017,3.4018,3.4022,3.4035,3.4049,3.4056,3.4075,3.4085,3.4099,3.4083,3.4053,3.4133,3.4089,3.4129,3.413,3.4149,3.4148,3.4276,3.4156,3.4156,3.4156,3.4155,0,3.4012,3.4053,3.4029,3.4056,3.4101,3.4078,3.4123,3.412,3.4123,3.4149,3.4119,3.4143,3.412,3.4142,3.413,3.4171,3.4176,3.4172,3.4168,3.4175,3.4175,3.4183,3.4177,3.4159,3.4158,3.4157,3.4157,0,3.4119,3.4104,3.4149,3.4145,3.4145,3.4179,3.4175,3.4199,3.419,3.4223,3.4229,3.4216,3.424,3.4225,3.425,3.4241,3.4295,3.4284,3.4293,3.429,3.4331,3.4328,3.4469,3.4486,3.4355,3.4356,3.4357,0,3.4186,3.4217,3.4215,3.4229,3.4232,3.4256,3.4268,3.4246,3.426,3.4268,3.4292,3.4313,3.4329,3.4369,3.4362,3.4381,3.4369,3.4417,3.4372,3.4377,3.437,3.4368,3.4371,3.4427,3.4428,3.443,3.4431,0,3.4305,3.4295,3.4314,3.433,3.4345,3.4357,3.4366,3.4379,3.4357,3.4374,3.4398,3.441,3.4434,3.4456,3.4471,3.4472,3.4448,3.4445,3.4455,3.4462,3.4467,3.4465,3.4318,3.4442,3.4441,3.444,3.4439,3.4439,3.4394,3.4419,3.4421,3.4442,3.4446,3.4455,3.4477,3.447,3.449,3.4507,3.4493,3.4521,3.4525,3.4542,3.4546,3.4568,3.4548,3.4563,3.4567,3.4571,3.4577,3.4462,3.457,3.457,3.457,3.4569,3.4569,0,3.4511,3.451,3.453,3.4543,3.4559,3.4533,3.4541,3.4557,3.4582,3.4587,3.4602,3.4629,3.4649,3.4643,3.466,3.4679,3.4668,3.4684,3.4683,3.4684,3.4594,3.4583,3.4693,3.4693,3.4693,3.4693,3.4693,3.4693,3.4574,3.4615,3.4605,3.4647,3.4646,3.4672,3.4679,3.4686,3.469,3.4721,3.4737,3.4732,3.4732,3.4749,3.4766,3.4764,3.4772,3.4792,3.4786,3.4702,3.469,3.4678,3.4668,3.4794,3.4794,3.4874,3.4875,3.4875]}]]